Regional Weather Roundup
Issued by NWS

Home | Current Version | Previous Version | Text Only | Print | Product List | Glossary On
Versions: 1 2 3 4 5 6 7 8 9 10 11 12 13 14 15 16 17 18 19 20 21 22 23 24 25 26 27 28 29 30 31 32 33 34 35 36 37 38 39 40 41 42 43 44 45 46 47 48 49 50
000
ASUS43 KDMX 261207
RWRIA

WEATHER ROUNDUP FOR IOWA
NATIONAL WEATHER SERVICE DES MOINES IA
600 AM CST FRI DEC 26 2014

NOTE: "FAIR" INDICATES FEW OR NO CLOUDS BELOW 12,000 FEET WITH NO
SIGNIFICANT WEATHER AND/OR OBSTRUCTIONS TO VISIBILITY.

* - THESE STATIONS ARE NOT NWS STATIONS...THUS NOT UNDER NWS
QUALITY CONTROL.  THEY ALSO DO NOT REPORT WEATHER SUCH
AS PRECIPITATION OR FOG.

IAZ001>003-012>014-020>022-031>034-043>046-261300-
   NORTHWEST IOWA

CITY           SKY/WX    TMP DP  RH WIND       PRES   REMARKS
CARROLL *      CLOUDY    30  30 100 N14       29.87R FOG     WCI  20
CHEROKEE *     CLOUDY    32  32 100 N9        29.90R FOG     WCI  24
DENISON *      CLOUDY    32  32 100 N13       29.87R WCI  22
LE MARS *      CLOUDY    32  30  93 N13       29.94R WCI  22
ORANGE CITY *  CLOUDY    30  28  93 N13       29.92R WCI  20
SHELDON *      CLOUDY    30  30 100 N15       29.91R WCI  19
SIOUX CITY     CLOUDY    33  29  85 N15       29.93R WCI  23
6HR MIN TEMP:  33; 6HR MAX TEMP:  35;

SPENCER        CLOUDY    31  30  96 N17       29.89R FOG     WCI  19
6HR MIN TEMP:  31; 6HR MAX TEMP:  33;

STORM LAKE *   CLOUDY    32  32 100 N14G20    29.88R FOG     WCI  22
$$

IAZ055>058-069>071-079>083-090>094-261300-
   SOUTHWEST IOWA

CITY           SKY/WX    TMP DP  RH WIND       PRES   REMARKS
ATLANTIC *     CLOUDY    30  30 100 N13       29.86R FOG     WCI  20
AUDUBON *      CLOUDY    30  25  80 N9        29.86R HAZE    WCI  22
CLARINDA *     PTCLDY    30  30 100 NW12      29.88R WCI  21
COUNCIL BLFS * CLOUDY    32  32 100 N16       29.87R FOG     WCI  21
CRESTON *      CLEAR     34  30  86 S9        29.84R WCI  26
HARLAN  *      CLOUDY    32  32 100 N13G21    29.90S FOG     WCI  22
LAMONI         PTCLDY    35  30  82 S7        29.84R WCI  29
6HR MIN TEMP:  35; 6HR MAX TEMP:  39;

RED OAK *      CLOUDY    32  32 100 N14       29.87R WCI  22
SHENANDOAH *   CLOUDY    32  32 100 N12G20    29.90R WCI  23
$$

IAZ047>049-059>061-072>074-084-261300-
   CENTRAL IOWA

CITY           SKY/WX    TMP DP  RH WIND       PRES   REMARKS
AMES           CLEAR     27  24  89 SE5       29.85R WCI  22
6HR MIN TEMP:  26; 6HR MAX TEMP:  36;

ANKENY *       CLEAR     36  30  80 W6        29.86R WCI  31
CHARITON *     CLOUDY    37  32  81 S13       29.85R WCI  29
DES MOINES     PTCLDY    35  29  78 S6        29.85R WCI  30
6HR MIN TEMP:  35; 6HR MAX TEMP:  42;

GRINNELL*      CLEAR     34  30  86 S8        29.86R WCI  27
KNOXVILLE *    CLEAR     37  30  75 S9        29.84R WCI  31
MARSHALLTOWN   CLEAR     35  29  78 S7        29.84R WCI  29
6HR MIN TEMP:  34; 6HR MAX TEMP:  37;

PELLA *        CLEAR     36  31  81 S7        29.88R WCI  30
PERRY *          N/A     30  30 100 NW8       29.85R WCI  23
$$

IAZ004>006-015-016-023>025-035-036-261300-
   NORTH CENTRAL IOWA

CITY           SKY/WX    TMP DP  RH WIND       PRES   REMARKS
ALGONA *       CLOUDY    32  32 100 N13       29.88R FOG     WCI  22
CLARION *      CLEAR     25  25 100 NW8       29.85R WCI  16
ESTHERVILLE    CLOUDY    31  30  96 N20       29.87R FOG     WCI  19
6HR MIN TEMP:  31; 6HR MAX TEMP:  31;

FORT DODGE *   CLOUDY    28  27  93 NW8       29.87R VSB 1/2 WCI  20
MASON CITY     FOG       22  21  96 CALM      29.85R VSB 3/4
6HR MIN TEMP:  22; 6HR MAX TEMP:  34;

FOREST CITY *  CLEAR     28  27  93 NW5       29.84R WCI  23
IOWA FALLS *     N/A     30  28  93 CALM      29.85R
$$

IAZ007>011-017>019-026>030-037>042-050>054-066-261300-
   NORTHEAST IOWA

CITY           SKY/WX    TMP DP  RH WIND       PRES   REMARKS
CEDAR RAPIDS   CLEAR     37  31  78 S10       29.87R WCI  30
6HR MIN TEMP:  36; 6HR MAX TEMP:  41;

CHARLES CITY * CLEAR     32  32 100 CALM      29.85R
CLINTON *      PTCLDY    39  32  75 SW13      29.95R WCI  32
DECORAH *      CLEAR     36  32  87 S5        29.84S WCI  32
DUBUQUE        CLEAR     34  30  85 S10       29.89R WCI  26
6HR MIN TEMP:  34; 6HR MAX TEMP:  38;

MONTICELLO *   CLEAR     37  34  87 S6G12     29.89R WCI  33
OELWEIN *      CLEAR     32  30  93 S7        29.87R WCI  26
WATERLOO       CLEAR     31  28  89 CALM      29.85R
6HR MIN TEMP:  30; 6HR MAX TEMP:  38;

$$

IAZ064-065-067-068-078-261300-
   EAST CENTRAL IOWA

CITY           SKY/WX    TMP DP  RH WIND       PRES   REMARKS
DAVENPORT      PTCLDY    39  32  76 S16       29.92R WCI  30
6HR MIN TEMP:  39; 6HR MAX TEMP:  42;

IOWA CITY      CLEAR     37  32  82 S6        29.91R WCI  32
6HR MIN TEMP:  37; 6HR MAX TEMP:  42;

MT. PLEASANT * MOCLDY    39  33  80 S12       29.93R WCI  31
MUSCATINE *    CLEAR     41  34  75 S12       29.92R
QUAD CITIES    PTCLDY    41  33  73 S16G24    29.92R
6HR MIN TEMP:  41; 6HR MAX TEMP:  43;

$$

IAZ062-063-075>077-085>089-095>099-261300-
   SOUTHEAST IOWA

CITY           SKY/WX    TMP DP  RH WIND       PRES   REMARKS
BURLINGTON     CLOUDY    40  34  79 S13       29.93S WCI  32
6HR MIN TEMP:  39; 6HR MAX TEMP:  41;

FAIRFIELD *    CLEAR     39  32  75 S10       29.90S WCI  32
FORT MADISON * CLEAR     39  36  87 S10       29.94S WCI  32
KEOKUK *       CLEAR     43  36  75 S16       29.93S
OSKALOOSA *      N/A     35  31  84 S14       29.87S WCI  26
CENTERVILLE *  CLEAR     39  32  75 S10       29.89R WCI  32
OTTUMWA        PTCLDY    38  31  76 S14       29.87S WCI  30
6HR MIN TEMP:  37; 6HR MAX TEMP:  41;

WASHINGTON *   CLEAR     39  36  87 S12       29.90R WCI  32
$$

ABBREVIATIONS USED IN REMARKS
   TC - TEMPERATURES IN CELSIUS
  WCI - WIND CHILL INDEX
   HX - HEAT INDEX
  VSB - VISIBILITY
$$



USA.gov is the U.S. government's official web portal to all federal, state and local government web resources and services.